Dewpoint
61 60 58 55 55 54 54 54 52 49 49 45 42 43 43 43 44 43 44 47 47 47 47 47 47 45 45 44 43 42 41 41 41 41 41 40 40 39
55 54 52 51 51 51 50 51 51 51 48 44 41 42 42 42 42 41 42 42 43 44 44 43 43 43 42 41 40 39 39 39 39 39 39 38 38 40
51 51 50 49 48 47 47 47 48 48 47 40 40 40 40 40 41 40 39 39 37 39 39 38 38 38 38 37 37 37 37 37 37 36 36 36 37 36
48 47 46 46 45 45 45 45 46 45 45 41 38 38 39 39 38 38 35 35 33 36 37 37 36 35 35 35 34 34 33 33 35 36 35 34 34 34
46 44 43 44 43 43 43 42 42 42 43 40 37 37 36 36 36 35 34 29 26 28 27 27 29 29 30 31 31 30 33 34 34 34 35 35 34 35
43 43 42 43 42 41 41 40 39 39 40 38 37 36 35 34 35 33 29 28 25 23 25 24 24 27 27 28 28 29 30 32 32 31 32 33 34 34
39 38 38 39 40 39 38 37 38 38 38 37 36 35 33 32 31 27 25 23 24 23 23 22 23 24 25 28 28 28 28 29 30 33 33 34 34 34
36 36 37 37 37 37 36 36 36 36 36 36 34 33 32 28 24 23 23 21 20 26 24 21 24 22 25 26 29 28 29 31 32 33 33 33 33 33
36 36 35 36 34 34 34 33 33 32 32 32 32 27 24 24 25 24 23 22 22 25 23 23 24 22 25 24 27 28 28 31 32 32 32 31 31 32
35 34 33 31 31 26 29 26 25 27 26 24 23 25 25 25 25 26 24 24 25 24 24 22 26 24 26 27 27 27 30 32 32 31 30 31 31 31
29 28 27 26 27 27 27 26 26 27 30 30 29 29 29 29 26 27 26 25 25 23 25 24 26 25 26 27 26 24 25 29 30 30 31 29 30 30
27 27 28 26 27 27 26 24 25 26 27 26 24 29 28 29 28 25 27 26 25 25 25 24 24 24 21 26 26 26 26 27 27 27 28 28 28 28
25 24 25 30 25 22 20 20 21 24 24 22 21 23 25 24 25 25 27 25 24 24 26 24 23 23 23 23 24 24 25 26 27 27 28 28 29 29
22 24 25 26 26 26 19 21 22 25 22 19 20 21 22 24 24 26 25 26 26 25 26 25 23 24 23 22 21 23 23 24 25 26 26 27 28 28
19 22 27 26 24 25 24 25 25 22 19 19 20 22 24 26 25 24 25 25 24 24 24 24 24 23 24 22 22 22 23 24 25 25 26 26 25 26
19 20 23 25 24 22 25 23 27 24 20 20 21 25 26 24 23 24 23 23 23 22 25 26 24 24 22 23 23 22 24 22 23 24 25 27 26 26
23 25 23 21 23 21 18 24 25 25 22 21 24 25 25 24 24 24 24 23 23 21 22 25 28 26 25 24 22 22 23 22 23 24 27 25 25 26
23 21 20 18 18 19 18 19 23 22 20 20 22 24 24 24 23 23 23 24 22 22 22 22 23 23 23 22 25 23 22 22 22 24 24 23 23 25
23 19 17 16 15 16 18 18 18 19 20 22 24 23 24 23 24 22 22 22 23 22 22 22 22 22 19 17 20 23 24 22 24 24 24 24 23 23
24 22 20 18 17 15 15 16 18 19 20 22 23 24 24 23 22 21 21 20 21 20 20 21 21 22 20 18 18 20 22 21 21 21 22 22 24 24
26 24 24 23 21 20 18 18 19 20 22 22 23 24 24 23 23 22 22 22 22 20 19 18 19 21 23 24 20 19 19 20 22 24 23 22 22 21
26 26 26 25 25 23 22 21 21 22 23 23 23 23 23 23 23 22 22 21 21 20 19 18 19 20 19 19 17 17 17 18 20 21 22 22 22 20
27 26 26 26 26 25 23 22 22 22 22 23 23 23 23 23 23 23 22 21 21 20 19 19 19 19 18 18 18 19 19 19 20 20 21 23 23 24
Wind_Speed
11 9 9 6 6 5 5 4 7 7 10 5 3 5 5 5 7 6 10 10 11 11 11 12 11 11 10 8 8 5 4 4 3 2 2 3 4 4
5 10 8 7 6 7 5 4 4 7 7 2 2 4 4 3 6 6 4 7 8 8 9 8 7 7 6 6 5 5 5 5 4 3 3 3 4 6
6 7 8 9 8 6 5 4 5 5 6 3 3 3 3 5 4 5 1 4 7 6 7 6 6 6 6 7 7 7 6 5 4 3 3 3 4 4
9 10 9 7 7 6 6 5 5 4 4 6 3 4 3 2 5 5 2 4 7 5 6 7 7 7 5 5 4 4 4 4 4 3 3 2 3 4
8 9 9 9 8 6 7 6 4 4 4 5 5 3 3 5 4 3 3 4 5 4 2 3 3 2 1 2 3 4 4 2 2 1 1 2 2 3
7 6 7 8 9 9 8 7 6 6 6 9 5 5 3 3 3 6 4 2 4 3 1 2 1 1 2 1 1 1 1 1 1 1 2 2 3 4
8 8 8 8 9 7 9 8 8 8 10 11 7 5 5 4 6 4 4 4 2 2 2 3 1 2 3 1 0 2 1 1 1 2 4 5 5 6
11 9 9 9 9 11 12 9 3 8 9 9 7 11 6 7 5 4 3 2 3 2 3 3 1 2 1 4 6 3 1 3 5 6 6 6 5 4
13 13 10 10 10 11 11 11 12 12 6 5 10 5 7 5 7 5 3 2 2 1 3 2 1 1 1 2 4 1 5 7 8 7 2 2 4 4
9 10 11 11 11 10 10 10 10 11 9 9 12 10 10 8 7 5 5 3 1 3 3 0 4 2 5 4 3 2 3 5 3 6 1 4 6 7
7 8 10 9 9 11 10 9 9 7 8 13 12 12 11 10 7 6 4 3 2 2 4 1 3 6 4 3 2 1 3 4 0 3 7 9 11 11
6 6 9 10 10 8 9 10 10 9 8 7 7 9 8 6 6 5 5 5 2 2 2 1 3 5 4 3 4 6 5 5 6 9 10 9 11 7
8 7 4 10 9 7 4 8 8 12 9 7 8 7 6 5 6 7 6 4 3 2 1 3 1 2 1 4 4 6 8 6 6 8 9 10 9 10
9 8 9 9 8 7 5 7 11 10 8 7 8 8 7 8 7 7 4 4 4 0 1 2 2 0 1 4 5 6 10 14 8 6 10 11 10 10
7 9 10 10 9 8 8 8 9 7 7 7 8 8 6 9 8 4 3 2 2 4 4 5 6 7 6 6 8 9 11 6 13 8 4 9 11 10
7 8 8 9 8 7 7 7 9 7 7 8 7 8 10 6 4 6 4 2 3 6 7 7 8 7 9 11 11 16 11 8 5 13 15 11 10 10
9 7 7 6 7 7 6 8 9 8 8 6 6 10 10 9 9 7 5 4 6 6 6 4 6 9 10 11 13 15 15 13 13 14 10 12 11 11
9 9 10 10 11 11 12 12 11 12 11 10 8 11 12 12 12 8 6 7 8 8 7 6 6 5 6 10 22 17 12 14 13 13 10 14 18 10
11 11 12 12 13 14 14 14 15 14 12 13 14 13 12 11 11 10 9 9 8 8 8 7 7 6 9 14 6 13 14 10 10 14 10 12 18 17
12 13 14 14 14 15 15 14 13 14 15 15 15 15 14 14 12 12 13 13 12 10 9 9 8 9 12 13 9 10 7 12 13 15 14 11 14 20
14 15 14 15 15 15 16 15 15 16 16 15 16 16 16 15 16 15 14 15 14 14 16 15 16 16 10 3 10 15 8 11 15 14 12 14 16 19
15 16 15 15 16 16 15 15 16 16 16 16 16 16 15 16 16 17 16 16 16 15 14 12 9 7 8 12 17 15 16 12 13 18 21 20 14 9
17 17 16 16 15 15 15 16 17 16 17 17 15 16 14 17 15 15 15 16 15 16 14 13 10 8 12 14 17 16 16 16 14 15 13 17 22 25
Wind_Direction
237 215 192 174 162 162 162 169 184 216 210 152 144 102 102 95 81 70 63 58 70 69 71 80 85 87 89 90 86 85 86 78 62 46 31 2 355 350
165 165 160 142 138 133 134 147 181 199 205 115 96 129 132 121 111 95 94 81 69 77 81 77 83 89 91 89 94 96 89 83 72 40 10 2 4 24
147 156 144 143 159 137 135 144 179 187 202 131 118 144 142 175 143 118 170 120 81 74 86 90 94 95 96 96 93 88 79 64 46 21 6 358 6 344
154 148 148 145 153 159 158 166 180 144 167 178 148 146 156 159 133 139 158 93 103 84 92 92 92 93 92 86 76 70 65 63 57 37 13 7 354 335
157 162 160 163 157 153 152 154 168 171 140 152 153 145 137 175 160 136 142 122 119 147 128 115 91 83 91 79 63 55 46 55 37 28 6 334 318 310
115 141 152 170 166 158 153 165 169 163 153 140 139 146 136 146 150 163 180 160 148 80 360 218 60 335 290 293 323 23 36 35 309 310 301 295 289 285
104 99 93 109 126 155 157 164 165 156 147 137 142 147 151 159 178 172 150 155 73 40 337 342 158 337 310 201 155 97 43 323 286 303 306 297 289 287
130 115 119 112 121 109 101 89 121 161 156 154 176 170 175 153 138 141 140 133 208 353 29 319 119 322 245 116 124 99 350 296 279 279 288 284 279 288
136 131 125 120 108 104 104 97 87 80 95 157 165 168 152 147 139 134 129 152 172 249 51 351 320 338 324 102 139 92 311 292 270 263 220 299 297 290
150 149 144 127 132 124 118 105 80 68 65 85 113 102 116 120 132 142 155 176 141 74 64 225 357 315 337 14 133 70 356 325 247 168 234 307 295 284
152 153 148 140 150 141 136 132 117 98 94 97 101 106 108 107 122 124 148 149 137 147 34 12 358 331 325 315 180 18 336 334 153 259 289 295 292 287
142 123 153 149 151 151 155 163 150 153 137 115 103 110 98 103 102 87 139 155 122 133 1 46 29 12 345 352 16 1 341 326 308 300 298 286 293 293
170 164 156 149 146 157 152 181 178 165 173 166 144 136 133 122 104 86 82 122 147 122 43 89 54 340 288 308 323 320 326 341 340 323 319 313 306 303
183 177 176 161 165 168 155 143 153 155 164 159 162 170 169 156 123 102 88 72 61 135 56 97 266 243 327 307 278 324 335 318 316 325 317 313 314 298
184 174 166 178 181 176 170 168 170 157 171 177 183 178 149 143 130 127 185 172 243 262 258 248 232 254 265 246 283 297 319 313 303 290 295 308 301 298
182 171 171 180 176 181 190 197 176 190 191 193 200 165 144 146 183 199 188 232 268 287 257 224 220 217 254 262 272 279 270 282 300 307 296 285 296 291
167 169 175 183 193 187 196 204 201 201 198 189 185 171 183 194 212 199 194 228 239 273 286 281 224 221 230 244 262 261 265 263 266 279 286 299 288 275
176 190 204 206 208 210 211 209 202 207 209 212 209 194 203 211 210 208 208 224 243 252 261 277 289 285 284 268 234 252 260 264 272 278 284 292 293 284
204 210 216 214 218 217 214 211 213 212 204 205 209 212 213 209 216 214 230 234 239 246 251 251 249 248 270 275 280 248 241 260 280 292 283 274 282 289
209 215 221 221 219 219 219 214 210 206 207 211 211 212 214 213 218 226 226 231 237 240 251 249 240 237 246 256 267 275 283 294 289 286 286 284 271 286
216 216 217 220 220 217 217 218 214 210 206 205 214 217 217 213 222 225 229 237 240 237 244 242 238 243 236 257 271 276 276 262 278 281 273 271 285 296
216 219 218 216 215 211 213 211 214 213 212 213 217 218 218 216 224 226 229 236 243 248 248 251 238 222 242 259 271 278 287 285 264 270 274 271 266 275
219 217 215 211 212 210 208 210 213 215 214 214 211 214 212 221 221 222 228 233 238 245 245 251 239 227 240 247 264 275 281 288 291 295 277 264 269 269